Torna al catalogo

STARLINK-34822

AttivoComunicazioniVLEO
NORAD 65086·PAYLOAD·🇺🇸 United States

Lanciato Aug 4, 2025 da Cape Canaveral Space Force Station

Loading…

Prossimi Passaggi (prossime 24 ore)

TLE

AggiornatoSource: CelesTrak SupGP

Epoca: Sep 15, 2026, 02:46 UTC

1 65086C 25167J   26258.11576389 -.00060337  00000+0 -17826-2 0  2583
2 65086  53.1589 226.5716 0001477  92.8184 315.4026 15.34421920    11

Traccia STARLINK-34822 in tempo reale con AllMySat

Download on the App Store